Time,TemperatureF,DewpointF,PressureIn,WindDirection,WindDirectionDegrees,WindSpeedMPH,WindSpeedGustMPH,Humidity,HourlyPrecipIn,Conditions,Clouds,dailyrainin,SoftwareType,DateUTC
2013-05-07 00:02:00,60.3,28.7,29.86,NW,326,0.0,0.0,30,0.00,,,0.00,LWC V2.11 B50,2013-05-07 06:02:00,
2013-05-07 00:07:00,60.0,28.5,29.86,NNW,336,0.0,4.0,30,0.00,,,0.00,LWC V2.11 B50,2013-05-07 06:07:00,
2013-05-07 00:12:00,59.6,27.3,29.86,NW,325,0.0,4.0,29,0.00,,,0.00,LWC V2.11 B50,2013-05-07 06:12:00,
2013-05-07 00:17:00,59.0,27.6,29.86,NW,317,0.0,2.0,30,0.00,,,0.00,LWC V2.11 B50,2013-05-07 06:17:00,
2013-05-07 00:22:00,58.4,27.1,29.86,NW,317,0.0,0.0,30,0.00,,,0.00,LWC V2.11 B50,2013-05-07 06:22:00,
2013-05-07 00:27:00,57.7,27.3,29.87,NW,317,0.0,0.0,31,0.00,,,0.00,LWC V2.11 B50,2013-05-07 06:27:00,
2013-05-07 00:32:00,57.2,27.6,29.87,NW,317,0.0,1.0,32,0.00,,,0.00,LWC V2.11 B50,2013-05-07 06:32:00,
2013-05-07 00:37:00,57.0,28.2,29.87,NW,317,0.0,3.0,33,0.00,,,0.00,LWC V2.11 B50,2013-05-07 06:37:00,
2013-05-07 00:42:00,56.9,28.8,29.87,WNW,303,0.0,1.0,34,0.00,,,0.00,LWC V2.11 B50,2013-05-07 06:42:00,
2013-05-07 00:47:00,57.0,28.9,29.87,NW,304,0.0,2.0,34,0.00,,,0.00,LWC V2.11 B50,2013-05-07 06:47:00,
2013-05-07 00:52:00,57.0,28.9,29.87,NW,313,0.0,1.0,34,0.00,,,0.00,LWC V2.11 B50,2013-05-07 06:52:00,
2013-05-07 00:57:00,56.6,27.1,29.87,NW,314,0.0,0.0,32,0.00,,,0.00,LWC V2.11 B50,2013-05-07 06:57:00,
2013-05-07 01:02:00,56.1,28.1,29.87,NW,314,0.0,0.0,34,0.00,,,0.00,LWC V2.11 B50,2013-05-07 07:02:00,
2013-05-07 01:07:00,55.7,27.8,29.87,NW,314,0.0,0.0,34,0.00,,,0.00,LWC V2.11 B50,2013-05-07 07:07:00,
2013-05-07 01:12:00,55.3,28.8,29.87,NW,314,0.0,1.0,36,0.00,,,0.00,LWC V2.11 B50,2013-05-07 07:12:00,
2013-05-07 01:17:00,55.1,29.3,29.87,NW,314,0.0,0.0,37,0.00,,,0.00,LWC V2.11 B50,2013-05-07 07:17:00,
2013-05-07 01:22:00,55.2,29.4,29.87,NW,314,0.0,0.0,37,0.00,,,0.00,LWC V2.11 B50,2013-05-07 07:22:00,
2013-05-07 01:27:00,55.2,28.7,29.87,NW,314,0.0,0.0,36,0.00,,,0.00,LWC V2.11 B50,2013-05-07 07:27:00,
2013-05-07 01:32:00,55.2,29.4,29.87,NW,319,0.0,1.0,37,0.00,,,0.00,LWC V2.11 B50,2013-05-07 07:32:00,
2013-05-07 01:37:00,55.1,29.3,29.87,NW,319,0.0,0.0,37,0.00,,,0.00,LWC V2.11 B50,2013-05-07 07:37:00,
2013-05-07 01:42:00,55.2,29.4,29.87,NW,315,0.0,0.0,37,0.00,,,0.00,LWC V2.11 B50,2013-05-07 07:42:00,
2013-05-07 01:47:00,55.2,29.4,29.87,NW,315,0.0,0.0,37,0.00,,,0.00,LWC V2.11 B50,2013-05-07 07:47:00,
2013-05-07 01:52:00,55.2,30.0,29.87,NW,317,1.0,2.0,38,0.00,,,0.00,LWC V2.11 B50,2013-05-07 07:52:00,
2013-05-07 01:57:00,55.2,29.4,29.87,NW,313,2.0,2.0,37,0.00,,,0.00,LWC V2.11 B50,2013-05-07 07:57:00,
2013-05-07 02:02:00,55.1,29.3,29.87,NW,313,0.0,0.0,37,0.00,,,0.00,LWC V2.11 B50,2013-05-07 08:02:00,
2013-05-07 02:07:00,54.9,29.1,29.87,NW,320,0.0,2.0,37,0.00,,,0.00,LWC V2.11 B50,2013-05-07 08:07:00,
2013-05-07 02:12:00,54.7,28.9,29.87,NW,320,0.0,0.0,37,0.00,,,0.00,LWC V2.11 B50,2013-05-07 08:12:00,
2013-05-07 02:17:00,54.5,29.4,29.87,NW,320,0.0,0.0,38,0.00,,,0.00,LWC V2.11 B50,2013-05-07 08:17:00,
2013-05-07 02:22:00,54.3,29.2,29.87,NW,320,0.0,0.0,38,0.00,,,0.00,LWC V2.11 B50,2013-05-07 08:22:00,
2013-05-07 02:27:00,54.1,29.1,29.87,NW,320,0.0,0.0,38,0.00,,,0.00,LWC V2.11 B50,2013-05-07 08:27:00,
2013-05-07 02:32:00,53.7,28.1,29.87,NW,320,0.0,0.0,37,0.00,,,0.00,LWC V2.11 B50,2013-05-07 08:32:00,
2013-05-07 02:37:00,53.2,28.3,29.87,NNW,329,0.0,2.0,38,0.00,,,0.00,LWC V2.11 B50,2013-05-07 08:37:00,
2013-05-07 02:42:00,52.7,27.2,29.87,NNW,330,0.0,0.0,37,0.00,,,0.00,LWC V2.11 B50,2013-05-07 08:42:00,
2013-05-07 02:47:00,52.3,27.5,29.87,WNW,302,0.0,4.0,38,0.00,,,0.00,LWC V2.11 B50,2013-05-07 08:47:00,
2013-05-07 02:52:00,52.1,28.5,29.87,NW,311,0.0,1.0,40,0.00,,,0.00,LWC V2.11 B50,2013-05-07 08:52:00,
2013-05-07 02:57:00,52.2,28.6,29.87,NW,313,0.0,2.0,40,0.00,,,0.00,LWC V2.11 B50,2013-05-07 08:57:00,
2013-05-07 03:02:00,52.3,28.7,29.87,NW,314,0.0,2.0,40,0.00,,,0.00,LWC V2.11 B50,2013-05-07 09:02:00,
2013-05-07 03:07:00,52.5,28.3,29.87,NNW,329,0.0,3.0,39,0.00,,,0.00,LWC V2.11 B50,2013-05-07 09:07:00,
2013-05-07 03:12:00,52.5,28.9,29.87,NW,315,0.0,3.0,40,0.00,,,0.00,LWC V2.11 B50,2013-05-07 09:12:00,
2013-05-07 03:17:00,52.5,28.9,29.87,NW,308,0.0,3.0,40,0.00,,,0.00,LWC V2.11 B50,2013-05-07 09:17:00,
2013-05-07 03:22:00,52.5,28.9,29.87,NW,310,2.0,2.0,40,0.00,,,0.00,LWC V2.11 B50,2013-05-07 09:22:00,
2013-05-07 03:27:00,52.4,28.8,29.87,NW,315,0.0,3.0,40,0.00,,,0.00,LWC V2.11 B50,2013-05-07 09:27:00,
2013-05-07 03:32:00,52.3,29.3,29.87,WNW,303,0.0,4.0,41,0.00,,,0.00,LWC V2.11 B50,2013-05-07 09:32:00,
2013-05-07 03:37:00,52.2,28.6,29.87,NW,315,0.0,0.0,40,0.00,,,0.00,LWC V2.11 B50,2013-05-07 09:37:00,
2013-05-07 03:42:00,52.0,29.0,29.87,NW,304,0.0,2.0,41,0.00,,,0.00,LWC V2.11 B50,2013-05-07 09:42:00,
2013-05-07 03:47:00,51.9,28.9,29.87,NW,313,0.0,0.0,41,0.00,,,0.00,LWC V2.11 B50,2013-05-07 09:47:00,
2013-05-07 03:52:00,51.6,28.7,29.87,NW,304,0.0,0.0,41,0.00,,,0.00,LWC V2.11 B50,2013-05-07 09:52:00,
2013-05-07 03:57:00,51.2,28.3,29.87,NW,315,0.0,2.0,41,0.00,,,0.00,LWC V2.11 B50,2013-05-07 09:57:00,
2013-05-07 04:02:00,51.0,28.7,29.86,NW,311,0.0,3.0,42,0.00,,,0.00,LWC V2.11 B50,2013-05-07 10:02:00,
2013-05-07 04:07:00,51.0,28.7,29.86,NW,323,1.0,1.0,42,0.00,,,0.00,LWC V2.11 B50,2013-05-07 10:07:00,
2013-05-07 04:12:00,50.9,28.6,29.87,NW,318,0.0,2.0,42,0.00,,,0.00,LWC V2.11 B50,2013-05-07 10:12:00,
2013-05-07 04:17:00,51.0,28.7,29.87,NW,321,0.0,5.0,42,0.00,,,0.00,LWC V2.11 B50,2013-05-07 10:17:00,
2013-05-07 04:22:00,50.9,28.6,29.87,NW,321,1.0,2.0,42,0.00,,,0.00,LWC V2.11 B50,2013-05-07 10:22:00,
2013-05-07 04:27:00,50.7,28.5,29.87,NW,318,0.0,0.0,42,0.00,,,0.00,LWC V2.11 B50,2013-05-07 10:27:00,
2013-05-07 04:32:00,50.5,28.8,29.87,NW,318,0.0,1.0,43,0.00,,,0.00,LWC V2.11 B50,2013-05-07 10:32:00,
2013-05-07 04:37:00,50.1,29.0,29.87,NW,309,0.0,0.0,44,0.00,,,0.00,LWC V2.11 B50,2013-05-07 10:37:00,
2013-05-07 04:42:00,50.0,29.0,29.87,NW,312,0.0,0.0,44,0.00,,,0.00,LWC V2.11 B50,2013-05-07 10:42:00,
2013-05-07 04:47:00,49.9,28.9,29.87,NW,312,0.0,0.0,44,0.00,,,0.00,LWC V2.11 B50,2013-05-07 10:47:00,
2013-05-07 04:52:00,49.7,28.7,29.87,NW,312,0.0,0.0,44,0.00,,,0.00,LWC V2.11 B50,2013-05-07 10:52:00,
2013-05-07 04:54:00,49.6,28.0,29.87,NW,312,0.0,0.0,43,0.00,,,0.00,LWC V2.11 B50,2013-05-07 10:54:00,
2013-05-07 04:59:00,49.2,27.7,29.87,NNW,328,0.0,3.0,43,0.00,,,0.00,LWC V2.11 B50,2013-05-07 10:59:00,
2013-05-07 05:04:00,49.2,28.2,29.87,NW,311,0.0,2.0,44,0.00,,,0.00,LWC V2.11 B50,2013-05-07 11:04:00,
2013-05-07 05:09:00,49.6,28.6,29.87,NW,313,1.0,4.0,44,0.00,,,0.00,LWC V2.11 B50,2013-05-07 11:09:00,
2013-05-07 05:14:00,49.6,28.0,29.87,NW,315,1.0,5.0,43,0.00,,,0.00,LWC V2.11 B50,2013-05-07 11:14:00,
2013-05-07 05:19:00,49.5,27.9,29.87,NW,315,0.0,1.0,43,0.00,,,0.00,LWC V2.11 B50,2013-05-07 11:19:00,
2013-05-07 05:24:00,49.3,28.3,29.87,NW,308,0.0,3.0,44,0.00,,,0.00,LWC V2.11 B50,2013-05-07 11:24:00,
2013-05-07 05:29:00,49.3,27.8,29.87,NW,315,2.0,4.0,43,0.00,,,0.00,LWC V2.11 B50,2013-05-07 11:29:00,
2013-05-07 05:34:00,49.2,28.2,29.87,NW,314,0.0,0.0,44,0.00,,,0.00,LWC V2.11 B50,2013-05-07 11:34:00,
2013-05-07 05:39:00,49.0,28.0,29.88,NW,314,0.0,1.0,44,0.00,,,0.00,LWC V2.11 B50,2013-05-07 11:39:00,
2013-05-07 05:44:00,48.9,28.5,29.88,NW,308,0.0,2.0,45,0.00,,,0.00,LWC V2.11 B50,2013-05-07 11:44:00,
2013-05-07 05:49:00,48.7,27.8,29.88,NW,308,0.0,0.0,44,0.00,,,0.00,LWC V2.11 B50,2013-05-07 11:49:00,
2013-05-07 05:54:00,48.5,28.7,29.88,NW,313,0.0,4.0,46,0.00,,,0.00,LWC V2.11 B50,2013-05-07 11:54:00,
2013-05-07 05:59:00,48.6,28.8,29.88,NW,313,0.0,0.0,46,0.00,,,0.00,LWC V2.11 B50,2013-05-07 11:59:00,
2013-05-07 06:02:00,48.6,28.2,29.88,NW,306,2.0,2.0,45,0.00,,,0.00,LWC V2.11 B50,2013-05-07 12:02:00,
2013-05-07 06:07:00,48.6,28.8,29.88,NW,313,0.0,2.0,46,0.00,,,0.00,LWC V2.11 B50,2013-05-07 12:07:00,
2013-05-07 06:12:00,48.8,29.5,29.88,NW,320,0.0,0.0,47,0.00,,,0.00,LWC V2.11 B50,2013-05-07 12:12:00,
2013-05-07 06:17:00,49.0,29.7,29.88,NW,321,0.0,2.0,47,0.00,,,0.00,LWC V2.11 B50,2013-05-07 12:17:00,
2013-05-07 06:22:00,49.0,29.7,29.89,NW,321,0.0,0.0,47,0.00,,,0.00,LWC V2.11 B50,2013-05-07 12:22:00,
2013-05-07 06:27:00,48.8,29.5,29.89,NW,321,0.0,0.0,47,0.00,,,0.00,LWC V2.11 B50,2013-05-07 12:27:00,
2013-05-07 06:32:00,48.5,29.2,29.89,SSE,168,0.0,2.0,47,0.00,,,0.00,LWC V2.11 B50,2013-05-07 12:32:00,
2013-05-07 06:37:00,48.3,29.0,29.89,SSE,168,0.0,0.0,47,0.00,,,0.00,LWC V2.11 B50,2013-05-07 12:37:00,
2013-05-07 06:42:00,48.2,28.9,29.90,SSE,168,0.0,0.0,47,0.00,,,0.00,LWC V2.11 B50,2013-05-07 12:42:00,
2013-05-07 06:47:00,48.3,29.5,29.90,SSE,168,0.0,0.0,48,0.00,,,0.00,LWC V2.11 B50,2013-05-07 12:47:00,
2013-05-07 06:52:00,48.3,29.0,29.90,SSE,168,0.0,0.0,47,0.00,,,0.00,LWC V2.11 B50,2013-05-07 12:52:00,
2013-05-07 06:57:00,48.4,28.6,29.90,SSE,168,0.0,0.0,46,0.00,,,0.00,LWC V2.11 B50,2013-05-07 12:57:00,
2013-05-07 07:02:00,48.6,28.8,29.90,SSE,168,0.0,0.0,46,0.00,,,0.00,LWC V2.11 B50,2013-05-07 13:02:00,
2013-05-07 07:07:00,48.9,29.0,29.90,SSE,168,0.0,0.0,46,0.00,,,0.00,LWC V2.11 B50,2013-05-07 13:07:00,
2013-05-07 07:12:00,49.3,29.4,29.90,SSE,168,0.0,0.0,46,0.00,,,0.00,LWC V2.11 B50,2013-05-07 13:12:00,
2013-05-07 07:17:00,49.8,28.8,29.90,SSE,168,0.0,0.0,44,0.00,,,0.00,LWC V2.11 B50,2013-05-07 13:17:00,
2013-05-07 07:22:00,50.3,29.2,29.90,SSE,168,0.0,0.0,44,0.00,,,0.00,LWC V2.11 B50,2013-05-07 13:22:00,
2013-05-07 07:27:00,50.6,30.1,29.91,SSE,168,0.0,0.0,45,0.00,,,0.00,LWC V2.11 B50,2013-05-07 13:27:00,
2013-05-07 07:32:00,51.0,29.9,29.91,SSE,168,0.0,0.0,44,0.00,,,0.00,LWC V2.11 B50,2013-05-07 13:32:00,
2013-05-07 07:37:00,51.4,30.2,29.91,SSE,168,0.0,0.0,44,0.00,,,0.00,LWC V2.11 B50,2013-05-07 13:37:00,
2013-05-07 07:42:00,52.0,30.2,29.91,SSE,168,0.0,0.0,43,0.00,,,0.00,LWC V2.11 B50,2013-05-07 13:42:00,
2013-05-07 07:47:00,52.9,30.4,29.91,SSE,168,0.0,0.0,42,0.00,,,0.00,LWC V2.11 B50,2013-05-07 13:47:00,
2013-05-07 07:52:00,53.9,31.3,29.91,SSE,168,0.0,0.0,42,0.00,,,0.00,LWC V2.11 B50,2013-05-07 13:52:00,
2013-05-07 07:57:00,55.1,31.8,29.91,SSE,165,0.0,1.0,41,0.00,,,0.00,LWC V2.11 B50,2013-05-07 13:57:00,
2013-05-07 08:02:00,56.1,32.7,29.91,SSE,163,0.0,1.0,41,0.00,,,0.00,LWC V2.11 B50,2013-05-07 14:02:00,
2013-05-07 08:07:00,57.0,32.9,29.91,SSE,163,0.0,0.0,40,0.00,,,0.00,LWC V2.11 B50,2013-05-07 14:07:00,
2013-05-07 08:12:00,58.1,32.6,29.91,SSE,163,0.0,1.0,38,0.00,,,0.00,LWC V2.11 B50,2013-05-07 14:12:00,
2013-05-07 08:17:00,58.9,32.7,29.91,SSE,151,0.0,0.0,37,0.00,,,0.00,LWC V2.11 B50,2013-05-07 14:17:00,
2013-05-07 08:22:00,59.5,33.2,29.91,SSE,151,0.0,0.0,37,0.00,,,0.00,LWC V2.11 B50,2013-05-07 14:22:00,
2013-05-07 08:27:00,59.8,33.5,29.91,SSE,151,0.0,0.0,37,0.00,,,0.00,LWC V2.11 B50,2013-05-07 14:27:00,
2013-05-07 08:32:00,60.4,33.3,29.91,SSE,147,0.0,0.0,36,0.00,,,0.00,LWC V2.11 B50,2013-05-07 14:32:00,
2013-05-07 08:37:00,60.9,33.1,29.91,SSE,162,0.0,2.0,35,0.00,,,0.00,LWC V2.11 B50,2013-05-07 14:37:00,
2013-05-07 08:42:00,61.2,32.6,29.91,SSE,163,0.0,0.0,34,0.00,,,0.00,LWC V2.11 B50,2013-05-07 14:42:00,
2013-05-07 08:47:00,61.7,33.8,29.90,SSE,149,0.0,1.0,35,0.00,,,0.00,LWC V2.11 B50,2013-05-07 14:47:00,
2013-05-07 08:52:00,62.2,32.7,29.90,ESE,117,0.0,0.0,33,0.00,,,0.00,LWC V2.11 B50,2013-05-07 14:52:00,
2013-05-07 08:57:00,62.7,33.9,29.90,ESE,116,0.0,1.0,34,0.00,,,0.00,LWC V2.11 B50,2013-05-07 14:57:00,
2013-05-07 09:02:00,63.1,33.5,29.90,ESE,117,0.0,0.0,33,0.00,,,0.00,LWC V2.11 B50,2013-05-07 15:02:00,
2013-05-07 09:07:00,63.5,33.9,29.90,ESE,117,0.0,0.0,33,0.00,,,0.00,LWC V2.11 B50,2013-05-07 15:07:00,
2013-05-07 09:12:00,64.0,35.8,29.90,ESE,117,0.0,0.0,35,0.00,,,0.00,LWC V2.11 B50,2013-05-07 15:12:00,
2013-05-07 09:17:00,64.7,34.9,29.90,East,101,0.0,1.0,33,0.00,,,0.00,LWC V2.11 B50,2013-05-07 15:17:00,
2013-05-07 09:22:00,65.5,33.2,29.90,SSE,153,0.0,0.0,30,0.00,,,0.00,LWC V2.11 B50,2013-05-07 15:22:00,
2013-05-07 09:28:00,66.1,33.8,29.90,SSE,167,0.0,2.0,30,0.00,,,0.00,LWC V2.11 B50,2013-05-07 15:28:00,
2013-05-07 09:33:00,66.4,34.8,29.90,SSW,202,0.0,2.0,31,0.00,,,0.00,LWC V2.11 B50,2013-05-07 15:33:00,
2013-05-07 09:37:00,66.7,34.3,29.90,South,189,1.0,1.0,30,0.00,,,0.00,LWC V2.11 B50,2013-05-07 15:37:00,
2013-05-07 09:42:00,66.9,34.5,29.90,ESE,113,0.0,2.0,30,0.00,,,0.00,LWC V2.11 B50,2013-05-07 15:42:00,
2013-05-07 09:48:00,67.0,32.8,29.90,East,86,0.0,1.0,28,0.00,,,0.00,LWC V2.11 B50,2013-05-07 15:48:00,
2013-05-07 09:53:00,67.3,33.9,29.90,ESE,117,2.0,2.0,29,0.00,,,0.00,LWC V2.11 B50,2013-05-07 15:53:00,
2013-05-07 09:58:00,67.6,33.3,29.89,SSE,162,0.0,3.0,28,0.00,,,0.00,LWC V2.11 B50,2013-05-07 15:58:00,
2013-05-07 10:03:00,67.7,35.1,29.89,SSE,157,1.0,4.0,30,0.00,,,0.00,LWC V2.11 B50,2013-05-07 16:03:00,
2013-05-07 10:08:00,67.8,33.5,29.89,SSE,161,0.0,0.0,28,0.00,,,0.00,LWC V2.11 B50,2013-05-07 16:08:00,
2013-05-07 10:13:00,68.0,35.4,29.89,SSW,193,0.0,1.0,30,0.00,,,0.00,LWC V2.11 B50,2013-05-07 16:13:00,
2013-05-07 10:18:00,68.3,33.9,29.89,SE,124,0.0,4.0,28,0.00,,,0.00,LWC V2.11 B50,2013-05-07 16:18:00,
2013-05-07 10:23:00,68.7,34.3,29.88,ESE,121,0.0,0.0,28,0.00,,,0.00,LWC V2.11 B50,2013-05-07 16:23:00,
2013-05-07 10:28:00,69.2,34.7,29.88,ESE,123,0.0,3.0,28,0.00,,,0.00,LWC V2.11 B50,2013-05-07 16:28:00,
2013-05-07 10:33:00,69.8,35.2,29.88,East,101,0.0,1.0,28,0.00,,,0.00,LWC V2.11 B50,2013-05-07 16:33:00,
2013-05-07 10:38:00,70.3,35.6,29.88,ESE,109,2.0,3.0,28,0.00,,,0.00,LWC V2.11 B50,2013-05-07 16:38:00,
2013-05-07 10:43:00,70.6,35.0,29.88,SSE,159,0.0,5.0,27,0.00,,,0.00,LWC V2.11 B50,2013-05-07 16:43:00,
2013-05-07 10:48:00,70.5,34.9,29.88,South,178,0.0,2.0,27,0.00,,,0.00,LWC V2.11 B50,2013-05-07 16:48:00,
2013-05-07 10:53:00,70.7,34.1,29.88,South,186,0.0,2.0,26,0.00,,,0.00,LWC V2.11 B50,2013-05-07 16:53:00,
2013-05-07 10:58:00,71.0,35.3,29.88,South,176,0.0,1.0,27,0.00,,,0.00,LWC V2.11 B50,2013-05-07 16:58:00,
2013-05-07 11:03:00,70.9,33.3,29.87,SSE,168,1.0,9.0,25,0.00,,,0.00,LWC V2.11 B50,2013-05-07 17:03:00,
2013-05-07 11:08:00,70.7,34.1,29.87,SSW,198,0.0,1.0,26,0.00,,,0.00,LWC V2.11 B50,2013-05-07 17:08:00,
2013-05-07 11:13:00,71.0,35.3,29.87,South,178,0.0,3.0,27,0.00,,,0.00,LWC V2.11 B50,2013-05-07 17:13:00,
2013-05-07 11:18:00,71.3,33.7,29.87,South,178,0.0,1.0,25,0.00,,,0.00,LWC V2.11 B50,2013-05-07 17:18:00,
2013-05-07 11:23:00,71.7,34.0,29.87,South,171,2.0,6.0,25,0.00,,,0.00,LWC V2.11 B50,2013-05-07 17:23:00,
2013-05-07 11:28:00,71.9,34.2,29.87,SW,225,0.0,4.0,25,0.00,,,0.00,LWC V2.11 B50,2013-05-07 17:28:00,
2013-05-07 11:33:00,72.3,35.5,29.87,SW,215,1.0,2.0,26,0.00,,,0.00,LWC V2.11 B50,2013-05-07 17:33:00,
2013-05-07 11:38:00,72.2,32.3,29.86,SSW,192,0.0,1.0,23,0.00,,,0.00,LWC V2.11 B50,2013-05-07 17:38:00,
2013-05-07 11:43:00,71.8,33.1,29.87,SW,234,0.0,0.0,24,0.00,,,0.00,LWC V2.11 B50,2013-05-07 17:43:00,
2013-05-07 11:48:00,72.2,32.3,29.86,WNW,293,2.0,4.0,23,0.00,,,0.00,LWC V2.11 B50,2013-05-07 17:48:00,
2013-05-07 11:53:00,72.1,32.3,29.86,West,264,0.0,3.0,23,0.00,,,0.00,LWC V2.11 B50,2013-05-07 17:53:00,
2013-05-07 11:58:00,72.3,33.5,29.86,South,174,0.0,2.0,24,0.00,,,0.00,LWC V2.11 B50,2013-05-07 17:58:00,
2013-05-07 12:03:00,72.4,32.5,29.86,South,190,1.0,3.0,23,0.00,,,0.00,LWC V2.11 B50,2013-05-07 18:03:00,
2013-05-07 12:08:00,72.2,32.3,29.85,SSW,192,1.0,4.0,23,0.00,,,0.00,LWC V2.11 B50,2013-05-07 18:08:00,
2013-05-07 12:13:00,72.6,31.6,29.85,WSW,250,2.0,5.0,22,0.00,,,0.00,LWC V2.11 B50,2013-05-07 18:13:00,
2013-05-07 12:18:00,72.5,32.6,29.85,SSW,213,0.0,6.0,23,0.00,,,0.00,LWC V2.11 B50,2013-05-07 18:18:00,
2013-05-07 12:23:00,72.6,31.6,29.84,West,271,4.0,4.0,22,0.00,,,0.00,LWC V2.11 B50,2013-05-07 18:23:00,
2013-05-07 12:28:00,72.1,32.3,29.84,WSW,253,0.0,2.0,23,0.00,,,0.00,LWC V2.11 B50,2013-05-07 18:28:00,
2013-05-07 12:33:00,72.1,33.3,29.83,East,99,0.0,0.0,24,0.00,,,0.00,LWC V2.11 B50,2013-05-07 18:33:00,
2013-05-07 12:38:00,72.1,32.3,29.83,SSW,213,0.0,3.0,23,0.00,,,0.00,LWC V2.11 B50,2013-05-07 18:38:00,
2013-05-07 12:43:00,72.7,29.3,29.82,SSE,157,0.0,1.0,20,0.00,,,0.00,LWC V2.11 B50,2013-05-07 18:43:00,
2013-05-07 12:48:00,73.3,31.0,29.82,SSW,209,1.0,2.0,21,0.00,,,0.00,LWC V2.11 B50,2013-05-07 18:48:00,
2013-05-07 12:53:00,74.0,31.6,29.82,South,187,2.0,5.0,21,0.00,,,0.00,LWC V2.11 B50,2013-05-07 18:53:00,
2013-05-07 12:58:00,74.4,30.7,29.82,SSW,209,0.0,5.0,20,0.00,,,0.00,LWC V2.11 B50,2013-05-07 18:58:00,
2013-05-07 13:03:00,74.7,28.4,29.82,ESE,123,0.0,2.0,18,0.00,,,0.00,LWC V2.11 B50,2013-05-07 19:03:00,
2013-05-07 13:08:00,75.0,29.9,29.81,SSE,153,0.0,1.0,19,0.00,,,0.00,LWC V2.11 B50,2013-05-07 19:08:00,
2013-05-07 13:13:00,75.1,30.0,29.81,South,190,0.0,3.0,19,0.00,,,0.00,LWC V2.11 B50,2013-05-07 19:13:00,
2013-05-07 13:18:00,75.2,35.9,29.81,SW,221,0.0,2.0,24,0.00,,,0.00,LWC V2.11 B50,2013-05-07 19:18:00,
2013-05-07 13:23:00,74.9,28.5,29.81,SSW,205,0.0,0.0,18,0.00,,,0.00,LWC V2.11 B50,2013-05-07 19:23:00,
2013-05-07 13:28:00,74.7,31.0,29.81,SW,218,0.0,3.0,20,0.00,,,0.00,LWC V2.11 B50,2013-05-07 19:28:00,
2013-05-07 13:33:00,75.4,32.7,29.80,South,188,2.0,10.0,21,0.00,,,0.00,LWC V2.11 B50,2013-05-07 19:33:00,
2013-05-07 13:38:00,75.8,33.1,29.80,NNW,329,1.0,3.0,21,0.00,,,0.00,LWC V2.11 B50,2013-05-07 19:38:00,
2013-05-07 13:43:00,76.0,33.2,29.80,SW,221,1.0,5.0,21,0.00,,,0.00,LWC V2.11 B50,2013-05-07 19:43:00,
2013-05-07 13:48:00,75.7,31.8,29.79,NE,36,0.0,5.0,20,0.00,,,0.00,LWC V2.11 B50,2013-05-07 19:48:00,
2013-05-07 13:53:00,75.4,35.0,29.79,SE,130,1.0,1.0,23,0.00,,,0.00,LWC V2.11 B50,2013-05-07 19:53:00,
2013-05-07 13:58:00,75.9,33.2,29.79,South,187,0.0,2.0,21,0.00,,,0.00,LWC V2.11 B50,2013-05-07 19:58:00,
2013-05-07 14:03:00,76.6,32.5,29.79,SSE,155,1.0,5.0,20,0.00,,,0.00,LWC V2.11 B50,2013-05-07 20:03:00,
2013-05-07 14:08:00,77.0,34.1,29.79,SSE,152,0.0,4.0,21,0.00,,,0.00,LWC V2.11 B50,2013-05-07 20:08:00,
2013-05-07 14:13:00,76.9,32.8,29.79,SSE,155,3.0,7.0,20,0.00,,,0.00,LWC V2.11 B50,2013-05-07 20:13:00,
2013-05-07 14:18:00,76.2,30.9,29.78,South,173,0.0,5.0,19,0.00,,,0.00,LWC V2.11 B50,2013-05-07 20:18:00,
2013-05-07 14:23:00,76.0,32.0,29.78,SE,146,8.0,9.0,20,0.00,,,0.00,LWC V2.11 B50,2013-05-07 20:23:00,
2013-05-07 14:28:00,75.9,31.9,29.78,SE,129,1.0,7.0,20,0.00,,,0.00,LWC V2.11 B50,2013-05-07 20:28:00,
2013-05-07 14:33:00,75.9,33.2,29.77,ESE,107,1.0,6.0,21,0.00,,,0.00,LWC V2.11 B50,2013-05-07 20:33:00,
2013-05-07 14:38:00,76.3,33.5,29.77,SSE,161,0.0,5.0,21,0.00,,,0.00,LWC V2.11 B50,2013-05-07 20:38:00,
2013-05-07 14:43:00,76.9,32.8,29.77,SSW,209,1.0,2.0,20,0.00,,,0.00,LWC V2.11 B50,2013-05-07 20:43:00,
2013-05-07 14:48:00,77.6,30.7,29.77,SSE,153,5.0,5.0,18,0.00,,,0.00,LWC V2.11 B50,2013-05-07 20:48:00,
2013-05-07 14:53:00,77.6,30.7,29.76,West,269,0.0,2.0,18,0.00,,,0.00,LWC V2.11 B50,2013-05-07 20:53:00,
2013-05-07 14:58:00,77.5,30.6,29.77,SSW,192,3.0,7.0,18,0.00,,,0.00,LWC V2.11 B50,2013-05-07 20:58:00,
2013-05-07 15:03:00,76.7,30.0,29.76,South,182,6.0,11.0,18,0.00,,,0.00,LWC V2.11 B50,2013-05-07 21:03:00,
2013-05-07 15:08:00,76.2,29.6,29.76,NW,326,2.0,2.0,18,0.00,,,0.00,LWC V2.11 B50,2013-05-07 21:08:00,
2013-05-07 15:13:00,75.7,30.5,29.75,SSW,203,0.0,2.0,19,0.00,,,0.00,LWC V2.11 B50,2013-05-07 21:13:00,
2013-05-07 15:18:00,75.8,30.6,29.75,South,174,2.0,3.0,19,0.00,,,0.00,LWC V2.11 B50,2013-05-07 21:18:00,
2013-05-07 15:23:00,75.2,30.1,29.75,ESE,105,0.0,4.0,19,0.00,,,0.00,LWC V2.11 B50,2013-05-07 21:23:00,
2013-05-07 15:28:00,74.6,29.6,29.75,ESE,111,0.0,6.0,19,0.00,,,0.00,LWC V2.11 B50,2013-05-07 21:28:00,
2013-05-07 15:33:00,74.2,30.5,29.74,South,184,2.0,7.0,20,0.00,,,0.00,LWC V2.11 B50,2013-05-07 21:33:00,
2013-05-07 15:38:00,73.9,29.0,29.74,SSW,198,3.0,6.0,19,0.00,,,0.00,LWC V2.11 B50,2013-05-07 21:38:00,
2013-05-07 15:43:00,74.0,30.4,29.73,SW,215,0.0,5.0,20,0.00,,,0.00,LWC V2.11 B50,2013-05-07 21:43:00,
2013-05-07 15:48:00,74.3,30.6,29.73,SSE,163,0.0,4.0,20,0.00,,,0.00,LWC V2.11 B50,2013-05-07 21:48:00,
2013-05-07 15:53:00,74.4,28.1,29.73,South,175,3.0,8.0,18,0.00,,,0.00,LWC V2.11 B50,2013-05-07 21:53:00,
2013-05-07 15:58:00,74.2,29.3,29.72,SSW,207,0.0,2.0,19,0.00,,,0.00,LWC V2.11 B50,2013-05-07 21:58:00,
2013-05-07 16:03:00,74.1,27.9,29.72,South,171,2.0,5.0,18,0.00,,,0.00,LWC V2.11 B50,2013-05-07 22:03:00,
2013-05-07 16:08:00,74.4,28.1,29.71,East,96,3.0,8.0,18,0.00,,,0.00,LWC V2.11 B50,2013-05-07 22:08:00,
2013-05-07 16:13:00,74.5,26.8,29.71,South,185,2.0,4.0,17,0.00,,,0.00,LWC V2.11 B50,2013-05-07 22:13:00,
2013-05-07 16:18:00,74.4,26.7,29.71,South,172,2.0,6.0,17,0.00,,,0.00,LWC V2.11 B50,2013-05-07 22:18:00,
2013-05-07 16:23:00,74.2,26.6,29.70,SSE,160,1.0,6.0,17,0.00,,,0.00,LWC V2.11 B50,2013-05-07 22:23:00,
2013-05-07 16:28:00,73.8,27.6,29.70,South,188,2.0,4.0,18,0.00,,,0.00,LWC V2.11 B50,2013-05-07 22:28:00,
2013-05-07 16:32:00,73.7,27.6,29.70,WSW,243,1.0,7.0,18,0.00,,,0.00,LWC V2.11 B50,2013-05-07 22:32:00,
2013-05-07 16:37:00,73.5,27.4,29.70,South,173,4.0,4.0,18,0.00,,,0.00,LWC V2.11 B50,2013-05-07 22:37:00,
2013-05-07 16:42:00,73.4,27.3,29.70,South,186,5.0,7.0,18,0.00,,,0.00,LWC V2.11 B50,2013-05-07 22:42:00,
2013-05-07 16:47:00,73.3,27.2,29.70,South,173,1.0,7.0,18,0.00,,,0.00,LWC V2.11 B50,2013-05-07 22:47:00,
2013-05-07 16:52:00,73.3,27.2,29.69,SSW,211,0.0,3.0,18,0.00,,,0.00,LWC V2.11 B50,2013-05-07 22:52:00,
2013-05-07 16:57:00,73.3,27.2,29.69,ESE,113,11.0,11.0,18,0.00,,,0.00,LWC V2.11 B50,2013-05-07 22:57:00,
2013-05-07 17:02:00,73.4,27.3,29.69,SSW,210,2.0,4.0,18,0.00,,,0.00,LWC V2.11 B50,2013-05-07 23:02:00,
2013-05-07 17:07:00,73.8,26.3,29.68,South,188,0.0,2.0,17,0.00,,,0.00,LWC V2.11 B50,2013-05-07 23:07:00,
2013-05-07 17:12:00,74.0,27.8,29.69,SSE,162,4.0,11.0,18,0.00,,,0.00,LWC V2.11 B50,2013-05-07 23:12:00,
2013-05-07 17:17:00,74.0,27.8,29.69,South,169,0.0,9.0,18,0.00,,,0.00,LWC V2.11 B50,2013-05-07 23:17:00,
2013-05-07 17:20:00,74.0,27.8,29.68,SW,215,6.0,9.0,18,0.00,,,0.00,LWC V2.11 B50,2013-05-07 23:20:00,
2013-05-07 17:25:00,73.8,27.6,29.69,South,180,5.0,6.0,18,0.00,,,0.00,LWC V2.11 B50,2013-05-07 23:25:00,
2013-05-07 17:30:00,73.6,27.5,29.68,SW,227,2.0,4.0,18,0.00,,,0.00,LWC V2.11 B50,2013-05-07 23:30:00,
2013-05-07 17:35:00,73.3,25.9,29.69,SW,223,1.0,9.0,17,0.00,,,0.00,LWC V2.11 B50,2013-05-07 23:35:00,
2013-05-07 17:40:00,73.2,25.8,29.69,SW,218,1.0,4.0,17,0.00,,,0.00,LWC V2.11 B50,2013-05-07 23:40:00,
2013-05-07 17:45:00,73.0,25.6,29.69,SSW,212,1.0,5.0,17,0.00,,,0.00,LWC V2.11 B50,2013-05-07 23:45:00,
2013-05-07 17:47:00,72.9,25.5,29.69,South,169,2.0,2.0,17,0.00,,,0.00,LWC V2.11 B50,2013-05-07 23:47:00,
2013-05-07 17:52:00,72.8,24.0,29.69,SSW,213,0.0,2.0,16,0.00,,,0.00,LWC V2.11 B50,2013-05-07 23:52:00,
2013-05-07 17:54:00,72.7,23.9,29.70,SSW,211,1.0,5.0,16,0.00,,,0.00,LWC V2.11 B50,2013-05-07 23:54:00,
2013-05-07 17:57:00,72.4,27.8,29.69,WSW,252,3.0,10.0,19,0.00,,,0.00,LWC V2.11 B50,2013-05-07 23:57:00,
2013-05-07 18:02:00,71.3,29.3,29.71,NW,324,1.0,4.0,21,0.00,,,0.00,LWC V2.11 B50,2013-05-08 00:02:00,
2013-05-07 18:07:00,70.3,29.7,29.70,WNW,295,6.0,14.0,22,0.00,,,0.00,LWC V2.11 B50,2013-05-08 00:07:00,
2013-05-07 18:11:00,70.0,27.1,29.70,WNW,290,0.0,4.0,20,0.00,,,0.00,LWC V2.11 B50,2013-05-08 00:11:00,
2013-05-07 18:16:00,70.0,28.3,29.70,NW,319,2.0,2.0,21,0.00,,,0.00,LWC V2.11 B50,2013-05-08 00:16:00,
2013-05-07 18:21:00,70.0,28.3,29.71,WNW,302,2.0,4.0,21,0.00,,,0.00,LWC V2.11 B50,2013-05-08 00:21:00,
2013-05-07 18:26:00,70.1,28.4,29.71,West,274,0.0,2.0,21,0.00,,,0.00,LWC V2.11 B50,2013-05-08 00:26:00,
2013-05-07 18:31:00,70.5,29.8,29.72,SW,235,1.0,7.0,22,0.00,,,0.00,LWC V2.11 B50,2013-05-08 00:31:00,
2013-05-07 18:33:00,70.6,28.8,29.72,SSE,148,0.0,9.0,21,0.00,,,0.00,LWC V2.11 B50,2013-05-08 00:33:00,
2013-05-07 18:38:00,70.7,30.0,29.70,SSW,209,0.0,0.0,22,0.00,,,0.00,LWC V2.11 B50,2013-05-08 00:38:00,
2013-05-07 18:43:00,70.7,30.0,29.70,West,278,0.0,0.0,22,0.00,,,0.00,LWC V2.11 B50,2013-05-08 00:43:00,
2013-05-07 18:48:00,71.0,30.2,29.70,SW,217,0.0,2.0,22,0.00,,,0.00,LWC V2.11 B50,2013-05-08 00:48:00,
2013-05-07 18:53:00,71.3,29.3,29.70,South,176,0.0,6.0,21,0.00,,,0.00,LWC V2.11 B50,2013-05-08 00:53:00,
2013-05-07 18:58:00,71.6,29.6,29.70,WSW,240,9.0,9.0,21,0.00,,,0.00,LWC V2.11 B50,2013-05-08 00:58:00,
2013-05-07 19:03:00,71.6,29.6,29.70,SSW,197,4.0,10.0,21,0.00,,,0.00,LWC V2.11 B50,2013-05-08 01:03:00,
2013-05-07 19:08:00,71.2,31.5,29.70,SSW,200,1.0,11.0,23,0.00,,,0.00,LWC V2.11 B50,2013-05-08 01:08:00,
2013-05-07 19:13:00,70.4,31.9,29.70,South,176,8.0,8.0,24,0.00,,,0.00,LWC V2.11 B50,2013-05-08 01:13:00,
2013-05-07 19:18:00,69.9,31.5,29.70,South,190,1.0,10.0,24,0.00,,,0.00,LWC V2.11 B50,2013-05-08 01:18:00,
2013-05-07 19:23:00,69.5,32.1,29.70,SSW,200,0.0,7.0,25,0.00,,,0.00,LWC V2.11 B50,2013-05-08 01:23:00,
2013-05-07 19:28:00,69.3,32.0,29.70,WSW,252,8.0,8.0,25,0.00,,,0.00,LWC V2.11 B50,2013-05-08 01:28:00,
2013-05-07 19:33:00,69.0,31.7,29.70,SSE,155,9.0,9.0,25,0.00,,,0.00,LWC V2.11 B50,2013-05-08 01:33:00,
2013-05-07 19:38:00,68.6,32.3,29.70,South,178,0.0,4.0,26,0.00,,,0.00,LWC V2.11 B50,2013-05-08 01:38:00,
2013-05-07 19:43:00,68.5,32.3,29.70,South,171,7.0,11.0,26,0.00,,,0.00,LWC V2.11 B50,2013-05-08 01:43:00,
2013-05-07 19:46:00,68.3,32.1,29.70,SW,220,6.0,6.0,26,0.00,,,0.00,LWC V2.11 B50,2013-05-08 01:46:00,
2013-05-07 19:51:00,68.1,30.9,29.71,South,174,6.0,8.0,25,0.00,,,0.00,LWC V2.11 B50,2013-05-08 01:51:00,
2013-05-07 19:56:00,67.9,31.7,29.71,SSE,167,4.0,12.0,26,0.00,,,0.00,LWC V2.11 B50,2013-05-08 01:56:00,
2013-05-07 20:01:00,67.7,32.5,29.71,SSW,196,5.0,8.0,27,0.00,,,0.00,LWC V2.11 B50,2013-05-08 02:01:00,
2013-05-07 20:04:00,67.5,32.3,29.71,South,175,2.0,12.0,27,0.00,,,0.00,LWC V2.11 B50,2013-05-08 02:04:00,
2013-05-07 20:09:00,67.4,32.3,29.71,South,179,3.0,6.0,27,0.00,,,0.00,LWC V2.11 B50,2013-05-08 02:09:00,
2013-05-07 20:14:00,67.2,32.1,29.70,SSE,166,1.0,2.0,27,0.00,,,0.00,LWC V2.11 B50,2013-05-08 02:14:00,
2013-05-07 20:19:00,67.1,31.1,29.70,SE,132,3.0,6.0,26,0.00,,,0.00,LWC V2.11 B50,2013-05-08 02:19:00,
2013-05-07 20:24:00,67.2,31.2,29.70,SW,219,3.0,7.0,26,0.00,,,0.00,LWC V2.11 B50,2013-05-08 02:24:00,
2013-05-07 20:29:00,67.2,31.2,29.70,South,180,0.0,3.0,26,0.00,,,0.00,LWC V2.11 B50,2013-05-08 02:29:00,
2013-05-07 20:34:00,67.1,31.1,29.70,SE,139,0.0,4.0,26,0.00,,,0.00,LWC V2.11 B50,2013-05-08 02:34:00,
2013-05-07 20:39:00,67.1,30.1,29.70,South,185,4.0,6.0,25,0.00,,,0.00,LWC V2.11 B50,2013-05-08 02:39:00,
2013-05-07 20:44:00,67.2,30.2,29.70,South,185,0.0,2.0,25,0.00,,,0.00,LWC V2.11 B50,2013-05-08 02:44:00,
2013-05-07 20:49:00,67.2,30.2,29.70,SSE,161,2.0,2.0,25,0.00,,,0.00,LWC V2.11 B50,2013-05-08 02:49:00,
2013-05-07 20:54:00,67.2,30.2,29.70,SSE,161,0.0,5.0,25,0.00,,,0.00,LWC V2.11 B50,2013-05-08 02:54:00,
2013-05-07 20:59:00,67.4,30.4,29.70,South,173,1.0,4.0,25,0.00,,,0.00,LWC V2.11 B50,2013-05-08 02:59:00,
2013-05-07 21:04:00,67.4,30.4,29.70,SSE,165,3.0,6.0,25,0.00,,,0.00,LWC V2.11 B50,2013-05-08 03:04:00,
2013-05-07 21:09:00,67.3,30.3,29.70,SSE,167,1.0,2.0,25,0.00,,,0.00,LWC V2.11 B50,2013-05-08 03:09:00,
2013-05-07 21:11:00,67.2,30.2,29.70,SSE,160,0.0,3.0,25,0.00,,,0.00,LWC V2.11 B50,2013-05-08 03:11:00,
2013-05-07 21:14:00,67.1,30.1,29.70,South,171,3.0,4.0,25,0.00,,,0.00,LWC V2.11 B50,2013-05-08 03:14:00,
2013-05-07 21:19:00,66.9,29.9,29.70,South,169,4.0,4.0,25,0.00,,,0.00,LWC V2.11 B50,2013-05-08 03:19:00,
2013-05-07 21:24:00,66.7,29.8,29.71,SSE,168,0.0,4.0,25,0.00,,,0.00,LWC V2.11 B50,2013-05-08 03:24:00,
2013-05-07 21:29:00,66.6,29.7,29.71,SSE,163,3.0,3.0,25,0.00,,,0.00,LWC V2.11 B50,2013-05-08 03:29:00,
2013-05-07 21:34:00,66.5,29.6,29.71,SSE,164,1.0,3.0,25,0.00,,,0.00,LWC V2.11 B50,2013-05-08 03:34:00,
2013-05-07 21:37:00,66.5,29.6,29.71,South,188,0.0,5.0,25,0.00,,,0.00,LWC V2.11 B50,2013-05-08 03:37:00,
2013-05-07 21:42:00,66.3,30.4,29.71,SSW,193,0.0,1.0,26,0.00,,,0.00,LWC V2.11 B50,2013-05-08 03:42:00,
2013-05-07 21:47:00,66.1,30.2,29.71,SSW,193,0.0,0.0,26,0.00,,,0.00,LWC V2.11 B50,2013-05-08 03:47:00,
2013-05-07 21:52:00,65.7,30.8,29.71,SSW,193,0.0,0.0,27,0.00,,,0.00,LWC V2.11 B50,2013-05-08 03:52:00,
2013-05-07 21:57:00,65.1,31.2,29.72,SSW,193,0.0,0.0,28,0.00,,,0.00,LWC V2.11 B50,2013-05-08 03:57:00,
2013-05-07 22:01:00,64.8,30.0,29.72,SSW,193,0.0,0.0,27,0.00,,,0.00,LWC V2.11 B50,2013-05-08 04:01:00,
2013-05-07 22:06:00,64.1,29.4,29.72,SSW,193,0.0,0.0,27,0.00,,,0.00,LWC V2.11 B50,2013-05-08 04:06:00,
2013-05-07 22:11:00,63.8,30.1,29.72,WNW,296,0.0,2.0,28,0.00,,,0.00,LWC V2.11 B50,2013-05-08 04:11:00,
2013-05-07 22:16:00,63.4,28.8,29.73,NW,321,2.0,9.0,27,0.00,,,0.00,LWC V2.11 B50,2013-05-08 04:16:00,
2013-05-07 22:21:00,62.9,30.2,29.73,NW,323,7.0,11.0,29,0.00,,,0.00,LWC V2.11 B50,2013-05-08 04:21:00,
2013-05-07 22:26:00,62.4,30.6,29.73,NW,320,0.0,4.0,30,0.00,,,0.00,LWC V2.11 B50,2013-05-08 04:26:00,
2013-05-07 22:31:00,61.8,30.0,29.73,NW,307,4.0,4.0,30,0.00,,,0.00,LWC V2.11 B50,2013-05-08 04:31:00,
2013-05-07 22:36:00,61.5,29.8,29.73,NW,323,1.0,2.0,30,0.00,,,0.00,LWC V2.11 B50,2013-05-08 04:36:00,
2013-05-07 22:41:00,61.4,31.3,29.73,NW,319,1.0,1.0,32,0.00,,,0.00,LWC V2.11 B50,2013-05-08 04:41:00,
2013-05-07 22:46:00,61.3,32.7,29.72,NNW,327,0.0,2.0,34,0.00,,,0.00,LWC V2.11 B50,2013-05-08 04:46:00,
2013-05-07 22:51:00,61.0,33.9,29.72,WNW,290,1.0,4.0,36,0.00,,,0.00,LWC V2.11 B50,2013-05-08 04:51:00,
2013-05-07 22:56:00,60.6,34.2,29.72,NW,308,0.0,6.0,37,0.00,,,0.00,LWC V2.11 B50,2013-05-08 04:56:00,
2013-05-07 23:01:00,60.3,34.6,29.72,NW,315,6.0,6.0,38,0.00,,,0.00,LWC V2.11 B50,2013-05-08 05:01:00,
2013-05-07 23:06:00,59.9,34.2,29.72,NNW,346,2.0,6.0,38,0.00,,,0.00,LWC V2.11 B50,2013-05-08 05:06:00,
2013-05-07 23:11:00,59.4,34.4,29.73,WNW,283,3.0,5.0,39,0.00,,,0.00,LWC V2.11 B50,2013-05-08 05:11:00,
2013-05-07 23:16:00,59.0,34.1,29.72,NW,309,2.0,3.0,39,0.00,,,0.00,LWC V2.11 B50,2013-05-08 05:16:00,
2013-05-07 23:21:00,58.6,34.4,29.73,WNW,303,0.0,1.0,40,0.00,,,0.00,LWC V2.11 B50,2013-05-08 05:21:00,
2013-05-07 23:26:00,58.4,34.2,29.73,WNW,298,0.0,1.0,40,0.00,,,0.00,LWC V2.11 B50,2013-05-08 05:26:00,
2013-05-07 23:31:00,58.5,33.6,29.74,NW,309,0.0,0.0,39,0.00,,,0.00,LWC V2.11 B50,2013-05-08 05:31:00,
2013-05-07 23:36:00,58.5,31.6,29.74,NW,309,0.0,0.0,36,0.00,,,0.00,LWC V2.11 B50,2013-05-08 05:36:00,
2013-05-07 23:41:00,58.4,30.9,29.73,NW,310,1.0,2.0,35,0.00,,,0.00,LWC V2.11 B50,2013-05-08 05:41:00,
2013-05-07 23:46:00,58.0,30.5,29.75,NW,320,3.0,6.0,35,0.00,,,0.00,LWC V2.11 B50,2013-05-08 05:46:00,
2013-05-07 23:51:00,57.7,32.9,29.74,NW,304,4.0,6.0,39,0.00,,,0.00,LWC V2.11 B50,2013-05-08 05:51:00,
2013-05-07 23:56:00,57.8,33.6,29.75,NNW,329,3.0,4.0,40,0.00,,,0.00,LWC V2.11 B50,2013-05-08 05:56:00,